Regional Weather Roundup
Issued by NWS

Home | Current Version | Previous Version | Graphics & Text | Print | Product List | Glossary On
Versions: 1 2 3 4 5 6 7 8 9 10 11 12 13 14 15 16 17 18 19 20 21 22 23 24 25 26 27 28 29 30 31 32 33 34 35 36 37 38 39 40 41 42 43 44 45 46 47 48 49 50
934
ASUS45 KCYS 181210
RWRWY

WYOMING REGIONAL WEATHER ROUNDUP
NATIONAL WEATHER SERVICE CHEYENNE WY
600 AM MDT FRI AUG 18 2017

NOTE:  "FAIR" INDICATES FEW OR NO CLOUDS BELOW 12,000 FEET
WITH NO SIGNIFICANT WEATHER AND/OR OBSTRUCTIONS TO VISIBILITY.

WYZ001-181300-
YELLOWSTONE NATIONAL PARK

CITY           SKY/WX    TMP DP  RH WIND       PRES   REMARKS
LK YELLOWSTONE   N/A     35  34  96 CALM      30.36S
6HR MIN TEMP:  35; 6HR MAX TEMP:  43;

W YELLOWSTONE  NOT AVBL

$$
WYZ002>013-054>058-071-098>099-181300-
NORTHERN WYOMING

CITY           SKY/WX    TMP DP  RH WIND       PRES   REMARKS
JACKSON        FAIR     N/A N/A N/A CALM      30.31R
CODY           FAIR      57  40  52 CALM      30.17R
GREYBULL       FAIR      51  42  71 E5        30.10R
6HR MIN TEMP:  51; 6HR MAX TEMP:  64;

WORLAND        FAIR      50  40  68 S6        30.11R
6HR MIN TEMP:  48; 6HR MAX TEMP:  61;

SHERIDAN       FAIR      52  39  61 CALM      30.09R
6HR MIN TEMP:  50; 6HR MAX TEMP:  61;

BUFFALO        FAIR      58  34  40 W7        30.15R
6HR MIN TEMP:  57; 6HR MAX TEMP:  66;

GILLETTE       FAIR      59  43  55 W8        30.10R
6HR MIN TEMP:  58; 6HR MAX TEMP:  64;

HULETT         FAIR      55  43  62 S7        30.10S
NEWCASTLE      FAIR      50  41  71 N12       30.12R

$$
WYZ014>020-022>026-101>103-181300-
CENTRAL WYOMING

CITY           SKY/WX    TMP DP  RH WIND       PRES   REMARKS
BIG PINEY      FAIR      37  30  75 CALM      30.33R
6HR MIN TEMP:  36; 6HR MAX TEMP:  50;

PINEDALE       FAIR      34  32  93 NW6       30.34R WCI  29
DUBOIS         FAIR      43  32  65 NW12      30.31R
LANDER           N/A    N/A N/A N/A MISG      30.20R
RIVERTON       FAIR      51  38  60 NW8       30.21R
6HR MIN TEMP:  51; 6HR MAX TEMP:  66;

CASPER         FAIR      49  44  83 W9        30.19R
6HR MIN TEMP:  46; 6HR MAX TEMP:  60;

DOUGLAS        FAIR      47  45  93 NW5       30.18R
6HR MIN TEMP:  47; 6HR MAX TEMP:  57;


$$
WYZ021-027>030-104>119-181300-
SOUTHERN WYOMING

CITY           SKY/WX    TMP DP  RH WIND       PRES   REMARKS
EVANSTON       FAIR      50  33  52 S7        30.32R
6HR MIN TEMP:  50; 6HR MAX TEMP:  60;

KEMMERER         N/A     43  34  70 N9        30.33S
FORT BRIDGER   FAIR      57  32  38 SW7       30.34S
ROCK SPRINGS   FAIR      55  33  43 W3        30.30R
6HR MIN TEMP:  55; 6HR MAX TEMP:  62;

RAWLINS        FAIR      45  34  65 N6        30.29R
6HR MIN TEMP:  45; 6HR MAX TEMP:  59;

SARATOGA       FAIR      43  37  81 S7        30.32R
LARAMIE        FAIR      44  37  76 S5        30.30R
6HR MIN TEMP:  44; 6HR MAX TEMP:  56;

CHEYENNE       FAIR      49  41  74 W8        30.24R
6HR MIN TEMP:  49; 6HR MAX TEMP:  57;

TORRINGTON     FAIR      51  48  89 NW5       30.12R
6HR MIN TEMP:  51; 6HR MAX TEMP:  63;

PINE BLUFFS    FAIR      45  45 100 W3        30.19R

$$




USA.gov is the U.S. government's official web portal to all federal, state and local government web resources and services.